Location: Unspecified
(0.0000°N, 0.0000°E)
Time: 12:29:10
(UTC+02:00)

JASON 3 - Visible Passes

Search period start: 28 September 2021 00:00
Search period end: 08 October 2021 00:00
Orbit: 1332 x 1343 km, 66.0° (Epoch: 27 September)

Date Brightness Start Highest point End Pass type
(mag) Time Alt. Az. Time Alt. Az. Time Alt. Az.
28 Sep ? 20:18:46 10° N 20:26:39 52° ENE 20:34:32 10° SE visible
28 Sep ? 22:16:47 10° WNW 22:22:16 20° WSW 22:27:47 10° SSW visible
29 Sep ? 20:40:58 10° NNW 20:49:10 86° WSW 20:57:23 10° SSE visible
30 Sep ? 07:00:27 10° SE 07:04:47 15° ESE 07:09:06 10° E visible
30 Sep ? 21:03:56 10° NW 21:11:40 47° WSW 21:19:27 10° S visible
01 Oct ? 07:20:25 10° S 07:27:24 31° ESE 07:34:19 10° NE visible
01 Oct ? 21:27:55 10° WNW 21:34:14 25° WSW 21:40:35 10° SSW visible
02 Oct ? 21:54:35 10° W 21:56:53 11° WSW 21:59:12 10° SW visible
03 Oct ? 06:14:24 10° SE 06:16:43 11° ESE 06:19:02 10° E visible
03 Oct ? 20:15:42 10° NNW 20:23:41 58° WSW 20:31:41 10° S visible
04 Oct ? 06:33:01 10° SSE 06:39:22 25° ESE 06:45:41 10° ENE visible
04 Oct ? 20:39:17 10° NW 20:46:13 31° WSW 20:53:11 10° S visible
05 Oct ? 06:54:09 10° S 07:01:56 47° ESE 07:09:40 10° NE visible
05 Oct ? 21:04:31 10° W 21:08:50 15° WSW 21:13:10 10° SW visible
06 Oct ? 07:16:14 10° SSW 07:24:26 86° ESE 07:32:39 10° NNE visible
07 Oct ? 05:45:49 10° SSE 05:51:20 20° ESE 05:56:50 10° ENE visible
